Вернуться в каталог

DELTA 1 DEB

АктивенSSO
NORAD 14914·DEBRIS·🇺🇸 United States

Запущен Mar 5, 1978 с Vandenberg Space Force Base

Loading…

Ближайшие Пролёты (ближайшие 24 часа)

TLE

СвежийSource: Space-Track

Эпоха: Sep 14, 2026, 20:51 UTC

1 14914U 78026GP  26257.86913358  .00000682  00000-0  21549-3 0  9997
2 14914  98.5453 293.3436 0041920   2.1821 177.8092 14.42899945330987

Отслеживайте DELTA 1 DEB в реальном времени с AllMySat

Download on the App Store